C/2012 LP26 ( Palomar )

Japanese version
Home page
Updated on February 13, 2018

---------------------------------------------------------------------

* Profile

Discovery Date June 10, 2012
Magnitude 20.8 mag
Discoverer Palomar Transient Factory program

* Pictures

* Orbital Elements

Epoch 2015 Aug. 6.0 TT = JDT 2457240.5
T 2015 Aug. 16.60758 TT                                 MPCW
q   6.5360520            (2000.0)            P               Q
z  +0.0001229      Peri.  145.15587     +0.51118174     +0.83866460
 +/-0.0000004      Node   153.98760     -0.85327520     +0.52142663
e   0.9991969      Incl.   25.37971     -0.10302752     -0.15734030
From 393 observations 2012 May 23-2018 Jan. 5, mean residual 0".5.

* Magnitudes Graph

        m1 = 3.7 + 5 log d + 12.0 log r(t - 70)

---------------------------------------------------------------------

The orbital elements are published on M.P.E.C. 2018-B155.
The magnitudes graphs are made with Comet for Windows.

---------------------------------------------------------------------

Copyright(C) Seiichi Yoshida (comet@aerith.net). All rights reserved.